Location: Bishop�s Knoyle
(51.0728°N, 2.1714°W)
Time: 02:10:39
(UTC+00:00)

Nauka - Pass Details

Date: 29 September 2021
Orbit: 417 x 423 km, 51.6° (Epoch: 26 October)

Event Time Altitude Azimuth Distance (km) Brightness Sun altitude
Rises 18:11:30 0° 275° (W) 2,364 ? -4.1°
Reaches altitude 10° 18:13:36 10° 276° (W) 1,501 ? -4.4°
Maximum altitude 18:16:58 80° 4° (N) 431 ? -5.0°
Drops below altitude 10° 18:20:21 10° 92° (E) 1,502 ? -5.5°
Enters shadow 18:20:52 - 93° (E) 1,713 ? -5.6°
